星链-6210 (STARLINK-6210 )

导读

STARLINK-6210是美国SpaceX公司星链星座项目的卫星,于2023年5月10日发射,属于星链大规模组网部署的一部分。星链项目通过低轨道卫星为全球提供高速低延迟互联网服务,尤其覆盖偏远地区,也用于军事和应急通信。该卫星运行在低地轨道,是星链星座中推进全球互联网覆盖、提升网络接入能力的一员,不过星链项目也因太空拥堵等问题引发争议。

Basic Information
目录编号:
56485
目录名称:
STARLINK-6210
国际标识:
2023-064AP
轨道中心:
EARTH
卫星名称:
星链-6210
卫星全名:
星链-6210 (STARLINK-6210 )
卫星状态:
在轨 (已飞行1221 天)
发射日期:
2023-05-10 UTC
国别 :
美国 (US)
星等 :
--
This satellite is enrolled in the Space Conjunction Data Service (SCDS) and the current flight risk assessment level is: No High Risk
Orbit Information
数据来源 国际轨道数据 AOE轨道数据
星历时间 2026-09-12T01:58:40+0800
21小时前
查看轨道信息
2026-09-10T07:00:00+0800
2天前
查看轨道信息
半长轴 6950.202km 6950.155km
偏心率 0.0003175 0.0003319
轨道倾角 70.001° 70.001°
近地点辐角 268.534° 278.629°
升交点赤经 15.155° 19.668°
平近点角 91.546° 144.991°
近地点 569.858km 569.711km
远地点 574.272km 574.325km
周期 96.107分钟 96.106分钟
每日圈数 14.983272 14.983423
Detailed Information
固有亮度:
5
最大亮度:
2.5
卫星平台:
Starlink v1.5
覆盖范围:
全球
运营商:
太空探索技术公司
运营商所在国:
美国
制造商(研发单位):
太空探索技术公司
制造商所在国:
美国
使用方式:
暂无
Satellite Introduction
星链(Starlink)计划是由太空探索技术公司(SpaceX)提出的一个巨型低轨卫星互联网星座项目,计划在2019年至2024年间在太空搭建由约1.2万颗卫星组成的“星链”网络,其中1584颗将部署在地球上空550千米处的近地轨道,并从2020年开始工作。该卫星仍在工作。
2D Orbit Map
3D Orbit Map
Orbit Altitude Analysis Chart
Orbit Inclination Analysis Chart
Orbit Comprehensive Analysis Chart
View Comprehensive Chart
Miss Distance Evolution Trend with All Objects
Collision Probability Evolution Trend with All Objects